RH
68 62 50 44 45 45 43 32 30 18 18 20 18 20 23 27 30 37 42 44 37 36 37 27 32 24 22 22 23 24 25 25 26 26 25 25 25 25 25 24 20 15 11 9 8 8 7 7 7
79 76 72 62 54 50 42 30 25 18 19 22 20 20 22 26 26 23 39 40 36 36 39 37 33 24 24 26 28 29 29 29 28 28 27 26 25 25 24 24 24 23 22 20 15 12 12 12 14
75 89 85 77 66 57 48 30 22 36 39 36 38 42 35 29 25 23 33 38 36 37 39 38 37 33 30 25 25 27 28 30 30 30 30 28 27 25 24 23 23 23 23 24 24 23 23 21 20
78 79 94 86 74 59 50 36 26 42 44 43 40 40 37 31 26 24 41 43 39 37 39 39 38 40 35 32 24 24 28 30 30 30 32 33 32 32 30 27 24 22 21 21 20 20 21 21 23
79 86 93 88 74 68 56 42 34 32 39 47 42 40 35 32 28 24 36 43 37 38 40 40 42 42 40 39 37 27 22 25 28 30 30 30 30 31 31 31 31 29 27 27 28 30 31 31 31
61 93 95 88 68 74 61 53 46 40 36 48 44 41 44 35 31 37 51 43 34 33 39 38 41 42 41 41 40 39 33 22 21 25 27 26 26 27 28 30 32 34 35 35 34 34 33 36 39
56 77 87 70 70 76 63 58 51 44 41 44 52 43 56 48 35 38 54 49 39 31 32 35 36 41 41 41 41 42 40 40 36 25 23 23 26 28 28 28 28 29 30 32 34 37 39 38 35
54 78 89 79 75 72 63 60 51 52 42 44 56 48 61 66 54 36 36 51 49 32 30 30 34 39 40 41 41 42 42 42 41 41 36 31 28 27 30 29 29 28 30 32 34 34 36 38 40
60 98 86 84 85 66 59 58 50 40 43 44 51 53 54 60 77 56 36 38 48 47 31 30 33 35 39 41 41 42 42 42 43 44 44 45 42 36 36 32 32 35 37 39 42 43 44 47 48
71 80 87 79 94 74 59 63 58 49 46 45 50 59 50 53 68 70 58 34 38 45 44 30 32 36 37 40 41 42 42 43 43 43 44 44 46 46 43 43 43 42 39 44 47 49 49 48 50
57 78 83 84 75 77 76 72 62 65 64 48 50 70 59 51 62 69 65 55 37 36 46 36 31 36 38 40 42 42 43 43 44 44 45 45 46 45 46 46 45 46 47 46 45 45 48 50 51
63 79 91 98 88 71 86 76 74 66 56 55 51 64 81 70 66 68 71 60 56 46 41 46 32 32 39 40 42 43 43 44 44 44 45 46 46 46 46 46 46 46 47 48 50 50 49 48 45
62 80 90 85 90 78 75 60 55 48 47 60 62 70 87 86 73 70 69 70 68 60 45 51 46 32 34 40 41 43 44 44 45 45 46 46 47 47 47 47 47 47 48 49 49 50 52 52 51
81 71 88 92 88 92 83 79 71 50 52 64 79 72 79 88 83 75 71 71 81 80 66 64 59 47 32 36 41 42 43 44 44 45 46 46 46 47 48 48 49 50 51 51 51 52 52 53 52
97 72 96 94 86 92 86 80 68 68 65 47 77 87 81 89 86 77 78 78 80 83 76 79 75 67 56 34 36 40 43 43 44 44 44 45 47 48 49 50 50 50 51 51 50 50 51 54 55
99 93 72 84 86 84 88 76 76 75 61 55 81 95 82 73 71 78 73 67 75 86 73 79 72 61 59 52 35 34 34 35 36 36 36 39 42 44 46 48 49 48 48 50 55 56 55 52 51
98 99 94 69 78 83 87 75 68 77 74 61 61 98 88 72 70 66 68 73 69 78 85 68 65 64 57 51 42 37 39 42 46 39 36 37 39 42 45 48 48 51 56 56 54 38 31 32 36
89 100 100 78 78 94 85 89 55 71 77 68 65 68 92 84 68 68 68 73 76 74 87 74 62 62 60 58 56 52 49 45 41 43 46 49 51 54 56 56 55 48 52 40 33 34 36 38 38
98 90 89 90 84 88 98 81 78 59 77 78 76 68 64 79 75 82 81 83 79 72 65 56 69 56 58 56 52 50 43 44 43 43 44 41 40 43 39 34 36 43 37 38 39 42 45 48 49
97 96 83 76 79 99 93 78 78 75 61 74 80 77 70 61 77 87 85 78 81 72 60 49 56 58 66 59 61 59 59 56 54 51 49 43 42 38 37 39 44 43 43 45 48 52 53 57 59
98 98 89 74 87 83 78 82 73 72 65 58 72 70 68 66 61 60 68 70 65 68 68 53 41 39 50 53 61 55 58 56 47 50 50 47 52 50 50 50 51 52 53 55 58 58 60 65 67
96 97 90 75 86 88 87 87 72 57 58 54 46 65 65 66 61 59 56 57 55 46 46 43 41 41 36 35 46 46 53 52 49 51 52 58 65 58 62 61 60 61 59 58 61 60 61 65 70
95 99 95 72 91 82 90 84 51 48 47 41 47 45 57 62 60 61 60 61 57 51 47 46 42 39 38 35 33 37 44 47 50 50 51 56 64 62 68 70 68 68 65 68 62 62 68 72 76
93 98 99 78 81 87 77 83 52 50 46 38 35 35 45 50 59 60 58 56 54 54 53 52 52 45 42 41 40 45 44 46 49 52 52 55 57 63 64 62 66 68 67 67 71 72 68 67 61
94 96 98 98 97 91 69 78 57 35 25 24 30 33 32 36 35 34 37 51 52 53 58 58 57 53 48 46 49 50 53 49 48 46 45 48 53 55 58 61 63 66 71 71 62 51 46 40 30
96 96 98 96 96 98 87 83 53 28 32 35 25 20 28 33 32 39 35 34 34 40 61 64 64 61 54 52 50 50 49 46 43 41 39 36 36 41 46 50 51 48 46 37 27 24 31 42 36
95 96 94 98 89 80 81 80 48 32 36 23 35 17 14 14 16 23 33 36 39 41 44 58 64 64 60 55 54 52 50 48 45 39 34 33 32 31 28 24 22 22 22 22 28 36 31 32 34
91 88 91 96 91 85 82 80 49 48 29 29 33 30 28 28 29 31 30 34 40 43 47 45 51 52 55 55 56 53 52 50 46 40 30 22 19 21 20 18 17 18 20 23 31 30 29 30 30
98 94 91 96 97 88 92 64 41 45 40 37 34 31 34 33 37 31 29 32 36 45 54 52 53 57 57 58 56 55 54 49 46 39 28 17 17 17 16 17 19 22 26 27 26 25 24 24 24
38 66 65 77 97 94 79 64 56 50 43 41 40 35 35 36 44 40 38 40 42 46 54 60 59 54 54 53 55 54 52 48 41 23 21 23 24 25 27 27 27 27 26 26 25 26 25 26 31
Wind_Speed
31 28 26 24 18 16 23 24 17 23 25 29 18 23 22 17 17 18 14 13 17 15 8 7 8 8 9 7 7 6 6 6 6 6 6 7 6 7 7 8 9 11 12 13 14 13 12 11 11
35 30 27 25 18 21 22 29 22 17 21 23 25 20 19 17 14 14 17 18 19 18 9 7 10 10 10 9 8 7 7 8 7 7 8 8 8 9 9 10 10 11 12 13 13 13 13 12 12
40 35 28 19 27 30 25 29 24 17 15 17 13 14 16 16 14 16 18 22 23 20 13 11 12 12 11 10 9 9 9 9 9 9 9 9 10 11 11 11 11 12 12 13 13 13 13 13 13
42 40 33 34 37 43 32 27 27 23 12 13 16 15 17 16 16 17 18 24 23 24 19 17 14 13 14 13 13 10 10 10 9 9 10 10 10 11 11 11 12 12 13 14 14 14 15 14 13
39 38 39 38 47 47 41 28 26 28 19 11 14 12 14 15 15 18 22 27 27 27 24 20 18 15 17 15 14 14 11 10 9 9 9 9 9 9 10 10 11 12 13 14 14 14 14 13 14
38 40 29 43 51 45 41 40 28 28 22 11 11 17 15 15 17 20 25 27 29 29 27 25 23 18 18 16 14 14 15 14 11 10 9 9 10 10 10 10 11 12 13 12 12 12 13 12 13
40 44 41 47 48 43 40 37 41 41 26 18 10 14 15 16 17 21 22 27 29 31 30 28 25 23 19 16 15 13 13 14 16 15 11 11 10 11 11 12 11 12 12 11 12 12 11 10 10
41 41 44 46 45 49 40 38 39 48 35 28 13 13 15 15 20 23 25 23 26 30 30 29 28 26 22 18 16 14 14 15 15 15 15 15 12 12 12 12 12 12 11 11 11 11 11 11 11
38 29 43 49 42 49 42 42 36 49 42 36 23 15 17 21 22 25 29 29 26 29 31 31 30 29 26 22 19 17 16 16 15 14 13 13 15 13 11 11 11 11 10 10 11 11 11 11 10
36 40 40 44 40 44 42 43 41 44 50 40 30 14 17 20 21 22 25 27 28 26 30 33 32 30 29 26 22 19 17 16 15 14 13 13 12 12 13 10 10 10 9 8 8 7 8 8 6
39 40 39 33 40 41 36 37 32 44 44 47 34 12 14 18 23 23 24 23 25 26 27 34 34 33 31 29 26 22 19 17 16 14 12 11 10 9 7 7 6 5 6 7 6 6 6 6 5
38 41 35 20 17 36 38 36 40 39 54 53 40 24 14 17 20 22 22 22 24 27 30 30 35 36 34 31 28 24 21 19 17 15 13 11 10 8 6 5 2 2 3 3 4 5 5 6 7
40 32 29 32 18 21 19 30 37 42 35 55 54 29 17 23 23 23 22 21 21 23 27 30 31 35 35 33 30 27 24 22 20 17 15 14 13 12 11 11 10 8 6 5 7 7 7 9 10
36 35 24 21 29 26 21 21 26 29 28 40 56 40 23 24 24 25 22 21 22 21 20 26 28 31 35 35 33 30 28 25 22 20 18 17 16 15 15 15 14 12 12 11 9 11 11 12 12
28 31 22 30 32 27 29 25 27 25 27 30 55 44 23 23 22 24 20 18 20 19 19 20 21 23 29 33 33 32 29 26 25 23 21 21 20 18 18 18 16 14 13 13 11 13 14 14 14
31 17 32 28 30 33 28 37 25 22 21 21 47 45 24 19 19 19 20 18 17 20 19 19 14 15 23 28 30 29 27 24 22 22 23 22 21 20 20 18 17 15 15 14 14 15 16 16 16
36 21 29 37 27 32 36 33 37 29 23 18 17 49 28 19 13 20 20 19 18 20 21 24 16 14 14 21 25 23 22 25 24 25 20 19 18 19 19 17 16 16 15 15 15 16 16 17 18
39 35 25 35 38 34 37 31 33 33 27 23 22 34 32 29 19 14 24 23 22 21 21 27 23 18 16 16 19 24 23 20 20 19 17 17 17 18 17 17 18 19 17 16 17 16 16 17 19
21 39 27 29 28 31 33 34 30 29 30 25 23 24 34 28 26 22 20 27 24 22 21 23 30 22 22 20 19 20 19 19 20 18 16 15 17 18 17 18 20 19 18 19 19 18 19 20 21
20 34 32 25 32 24 30 35 31 25 28 30 30 25 23 34 23 31 23 23 25 21 22 21 25 25 24 23 23 23 22 21 22 21 19 19 19 19 19 20 20 21 22 22 22 22 23 24 24
7 37 36 34 25 28 26 25 33 30 27 34 33 37 31 29 34 32 26 24 24 24 26 25 24 25 28 30 27 27 27 25 26 25 23 23 22 22 22 23 24 25 25 25 26 27 27 27 28
6 29 27 32 26 14 25 6 32 37 35 33 42 37 42 37 31 31 35 30 29 31 32 30 29 26 25 29 30 31 30 28 26 26 27 26 26 25 27 28 29 29 28 29 28 30 32 33 33
12 20 25 26 27 19 19 9 18 21 39 44 36 45 42 40 42 38 37 37 38 38 36 34 33 34 32 29 29 30 32 31 30 30 30 30 30 32 31 29 30 30 32 32 33 34 34 36 37
21 10 22 26 20 10 21 19 16 29 27 33 39 42 41 42 44 46 47 44 42 42 38 35 33 34 31 29 29 31 30 29 30 30 31 31 33 34 34 35 34 34 33 34 35 37 38 39 40
28 17 5 5 6 4 23 17 23 8 19 26 27 33 38 39 41 44 44 51 47 45 41 38 34 33 32 29 28 28 29 30 31 31 33 33 34 34 34 36 37 37 37 38 40 42 43 43 43
14 16 4 4 6 5 13 12 18 25 27 13 27 30 32 36 34 32 40 41 42 46 46 41 39 36 35 33 32 30 29 29 30 32 34 35 35 36 39 39 40 42 43 44 45 45 42 41 40
15 8 14 3 6 5 8 5 5 27 16 18 11 24 24 27 32 31 29 33 38 36 41 46 46 42 40 39 37 35 35 34 33 32 32 32 34 36 38 40 41 43 44 44 44 44 42 41 40
13 18 5 4 3 2 1 2 6 6 18 14 11 14 18 21 21 25 30 29 32 34 35 35 35 34 36 38 38 38 37 35 34 34 34 37 39 40 41 41 41 41 41 41 41 40 37 34 31
14 12 11 2 0 4 3 3 10 11 12 9 6 12 14 16 15 19 27 24 26 28 30 32 36 36 35 36 36 37 38 38 39 39 41 38 36 36 37 38 37 36 34 33 32 33 32 32 31
19 22 19 3 2 0 1 2 6 10 8 6 6 16 16 16 14 14 19 21 21 24 26 30 32 35 37 41 42 42 42 43 42 39 35 33 32 32 32 31 32 32 32 32 33 34 34 33 33
Wind_Direction
201 194 191 191 197 213 217 215 212 214 215 220 219 226 226 222 214 218 215 206 185 171 164 135 133 129 123 120 114 111 104 100 96 95 85 79 76 73 69 70 70 67 70 75 80 84 88 87 82
198 194 192 191 208 207 218 212 213 209 209 215 226 227 227 225 218 231 206 207 185 172 177 143 139 128 123 121 119 117 113 109 108 102 94 86 80 78 74 74 75 75 76 78 80 82 83 80 77
204 200 199 197 213 217 218 215 206 185 183 185 181 190 198 210 216 207 208 195 184 174 177 154 144 133 123 116 118 120 116 115 112 108 96 88 83 81 78 79 78 77 78 78 78 78 76 74 74
211 210 216 219 220 224 220 214 206 192 191 191 189 180 190 195 205 202 197 190 187 178 171 160 152 143 127 111 102 112 118 117 113 107 100 92 86 85 84 82 81 81 79 79 76 75 76 76 76
210 210 214 223 226 229 225 219 209 213 214 211 206 179 185 189 195 200 199 193 188 182 174 169 162 158 142 125 109 100 110 115 114 106 99 95 92 90 89 90 91 88 86 84 82 80 79 79 78
207 205 208 220 227 230 227 225 224 216 217 201 215 198 182 192 188 191 186 193 190 185 180 175 170 166 156 141 125 106 97 94 99 104 100 97 97 96 96 97 94 93 88 87 87 85 84 83 79
208 208 215 225 228 230 224 226 222 222 219 207 225 205 193 199 202 192 192 194 196 191 185 179 177 171 171 161 147 131 111 98 89 89 94 97 100 100 97 93 93 91 91 92 92 90 86 79 70
208 209 216 223 223 230 226 229 205 224 220 223 228 202 186 194 200 202 199 193 197 199 191 185 183 181 181 177 168 155 139 126 112 97 82 79 87 91 92 91 89 87 89 91 90 86 81 74 67
207 208 220 220 221 229 226 226 215 223 226 227 228 210 195 198 194 196 197 198 195 198 198 192 190 188 189 187 182 173 161 148 133 116 94 75 65 71 80 79 80 79 79 78 76 72 69 66 60
202 215 219 223 224 229 228 229 226 222 230 229 223 219 207 205 202 200 204 203 203 201 201 199 197 196 195 194 192 188 176 164 153 140 130 120 91 59 57 69 66 59 56 53 48 48 42 41 36
205 220 221 231 227 228 227 230 228 229 235 225 215 221 223 210 206 207 203 210 215 211 205 203 201 200 203 200 200 197 188 183 175 166 158 149 133 119 91 69 73 56 43 42 32 24 11 1 357
211 216 220 204 227 226 229 228 231 234 223 216 212 217 213 190 204 211 208 208 214 216 209 206 205 204 206 207 206 204 199 198 194 191 190 183 180 182 181 176 159 359 345 344 346 348 341 336 336
215 215 217 221 205 210 217 234 243 239 236 218 222 212 224 206 202 206 212 216 221 222 213 207 208 211 209 209 210 209 208 208 209 208 210 213 213 217 224 230 233 241 253 271 288 288 301 310 309
217 209 216 208 199 202 196 204 220 231 230 218 221 214 225 207 201 202 210 212 209 208 205 205 209 213 214 213 212 213 215 214 218 221 224 226 229 231 236 242 245 246 255 260 271 280 283 289 293
214 217 200 207 203 211 205 210 217 226 227 232 213 216 208 203 206 203 205 208 204 207 211 199 204 211 215 215 214 216 220 220 224 229 233 237 236 239 243 246 249 251 257 261 270 277 280 282 283
205 208 212 204 209 210 207 215 209 211 222 216 222 214 202 199 209 204 201 195 198 207 207 201 193 194 206 212 214 217 221 223 229 239 237 238 239 242 246 248 247 253 256 258 266 271 276 278 281
201 209 206 208 211 210 207 222 214 224 226 221 223 212 205 181 189 212 201 201 210 206 204 206 210 207 199 202 208 212 217 226 217 229 230 231 235 240 243 245 248 252 253 259 268 273 278 284 286
193 200 198 199 203 206 210 219 220 217 218 229 222 228 210 206 185 220 205 202 213 222 200 208 214 213 215 206 205 208 214 212 217 221 225 228 235 240 241 244 249 256 255 261 267 275 285 290 289
186 198 202 203 202 209 212 220 223 228 220 208 207 228 227 216 188 202 212 207 210 209 208 214 217 227 225 220 217 215 213 216 218 217 223 232 241 244 244 248 251 252 254 259 268 276 285 288 287
245 200 200 205 210 203 215 221 223 223 222 216 212 213 228 230 227 219 218 217 213 212 222 223 223 234 233 233 230 230 226 227 225 226 227 233 236 239 245 247 250 253 257 262 268 277 283 286 287
187 190 187 189 186 204 218 230 230 214 210 216 212 212 209 212 218 230 207 216 229 227 230 239 238 237 226 230 230 233 238 236 235 237 238 241 242 245 247 249 251 254 259 265 272 278 282 282 282
304 183 180 186 179 184 201 242 234 224 216 212 218 216 217 220 214 212 219 222 231 234 236 244 248 245 243 234 230 235 239 241 243 241 244 248 252 250 255 254 257 260 266 269 274 277 280 282 284
231 146 179 182 187 192 195 221 234 225 226 220 210 218 221 220 228 221 223 226 229 238 242 243 245 248 247 247 241 238 241 244 247 250 250 252 252 254 259 264 265 262 267 271 275 275 278 280 283
222 125 148 173 184 207 211 207 247 233 231 230 226 221 219 218 223 230 230 231 236 239 241 239 240 244 242 241 244 243 246 247 249 253 256 257 257 258 261 264 261 262 265 268 270 273 275 279 283
241 246 132 143 167 206 207 215 232 250 232 231 229 226 228 229 229 230 234 234 234 238 239 240 239 240 246 243 241 242 245 247 250 254 258 257 257 260 261 262 263 265 268 270 273 275 278 280 281
205 222 335 150 174 160 168 223 231 239 242 215 225 227 223 224 225 231 231 235 236 234 235 237 240 243 244 247 248 247 251 252 254 259 262 262 261 261 263 264 266 269 271 274 275 277 278 280 281
203 217 238 36 108 120 196 252 237 228 214 227 218 222 224 225 229 231 235 236 238 238 237 238 240 242 245 249 249 251 255 259 261 263 263 264 263 263 264 266 266 267 268 271 273 274 276 277 277
209 219 225 200 122 186 247 214 211 208 208 205 229 207 205 204 219 234 233 236 237 240 238 238 241 244 245 244 246 252 258 262 266 271 268 270 266 264 266 266 266 266 268 269 270 273 275 274 274
176 199 213 194 241 150 138 229 181 202 160 178 208 213 220 220 230 225 222 229 234 236 237 239 240 241 243 245 249 255 260 265 271 273 277 271 266 263 263 264 266 267 267 267 269 271 273 274 274
219 223 217 198 167 117 127 59 142 137 157 167 206 221 227 222 213 206 213 223 231 236 240 243 243 246 248 250 253 258 264 270 272 270 268 266 264 265 265 264 265 266 268 269 270 271 272 274 277